Location: Evensen
(52.5775°N, 9.5258°E)
Time: 20:20:34
(UTC+00:00)

ACS3 Solar Sail - Pass Details

Date: 15 May 2026
Orbit: 878 x 953 km, 97.2° (Epoch: 8 June)

Event Time Altitude Azimuth Distance (km) Brightness Sun altitude
Rises 23:37:42 0° 16° (NNE) 3,504 6.3 -18.2°
Reaches altitude 10° 23:40:16 10° 24° (NNE) 2,554 5.1 -18.2°
Maximum altitude 23:45:39 43° 95° (E) 1,223 2.3 -18.1°
Enters shadow 23:48:40 24° 152° (SSE) 1,749 2.7 -18.1°
